Regional Weather Roundup
Issued by NWS

Home | Current Version | Previous Version | Text Only | Print | Product List | Glossary Off
Versions: 1 2 3 4 5 6 7 8 9 10 11 12 13 14 15 16 17 18 19 20 21 22 23 24 25 26 27 28 29 30 31 32 33 34 35 36 37 38 39 40 41 42 43 44 45 46 47 48 49 50

000
ASUS43 KDMX 270203
RWRIA

WEATHER ROUNDUP FOR IOWA
NATIONAL WEATHER SERVICE DES MOINES IA
900 PM CDT FRI AUG 26 2016

NOTE: "FAIR" INDICATES FEW OR NO CLOUDS BELOW 12,000 FEET WITH NO
SIGNIFICANT WEATHER AND/OR OBSTRUCTIONS TO VISIBILITY.

* - THESE STATIONS ARE NOT NWS STATIONS...THUS NOT UNDER NWS
QUALITY CONTROL.  THEY ALSO DO NOT REPORT WEATHER SUCH
AS PRECIPITATION OR FOG.

IAZ001>003-012>014-020>022-031>034-043>046-270300-
   NORTHWEST IOWA

CITY           SKY/WX    TMP DP  RH WIND       PRES   REMARKS
CARROLL *      CLOUDY    64  63  94 E8        30.09R
CHEROKEE *     CLOUDY    65  62  90 CALM      30.10R
DENISON *      CLOUDY    64  63  94 E5        30.07R FOG
LE MARS *      CLOUDY    68  61  77 E6        30.08S
ORANGE CITY *  CLOUDY    66  63  88 E6        30.08S
SHELDON *      CLOUDY    64  61  88 E7        30.08S
SIOUX CITY     CLOUDY    68  61  78 SE9       30.07R
SPENCER        CLOUDY    64  60  87 E6        30.11R
STORM LAKE *   CLOUDY    64  61  88 E7        30.10R
$$

IAZ055>058-069>071-079>083-090>094-270300-
   SOUTHWEST IOWA

CITY           SKY/WX    TMP DP  RH WIND       PRES   REMARKS
ATLANTIC *     CLOUDY    66  64  94 NE8       30.06S
AUDUBON *      DRIZZLE   64  63  94 NE3       30.09R
CLARINDA *       N/A     68  68 100 MISG      30.06S
COUNCIL BLFS * CLOUDY    66  64  94 NE7       30.06S
CRESTON *      CLOUDY    68  66  94 E10       30.08R
HARLAN  *      CLOUDY    66  63  88 VRB6      30.11R
LAMONI         LGT RAIN  69  68  96 E5        30.05R
RED OAK *      CLOUDY    68  66  94 N6        30.05S
SHENANDOAH *   PTCLDY    68 -38   1 NE5       30.04F
$$

IAZ047>049-059>061-072>074-084-270300-
   CENTRAL IOWA

CITY           SKY/WX    TMP DP  RH WIND       PRES   REMARKS
AMES           CLOUDY    63  62  97 NE6       30.10R
ANKENY *         N/A    N/A N/A N/A MISG        N/A
BOONE *        CLOUDY    63  59  88 E10       30.09R
CHARITON *     RAIN      68  66  94 MISG      30.05S
DES MOINES     LGT RAIN  69  65  86 E10       30.07R
GRINNELL*      LGT RAIN  66  62  87 NE7       30.09S
KNOXVILLE *    CLOUDY    70  64  83 E7        30.05F
MARSHALLTOWN   RAIN      64  61  90 NE12      30.10R
NEWTON *       CLOUDY    66  64  94 NE7       30.08R
PERRY *        LGT RAIN  65  63  94 E9        30.09R
$$

IAZ004>006-015-016-023>025-035-036-270300-
   NORTH CENTRAL IOWA

CITY           SKY/WX    TMP DP  RH WIND       PRES   REMARKS
ALGONA *       CLOUDY    66  61  82 E7        30.12R
ESTHERVILLE    CLOUDY    62  61  96 E5        30.11S
FORT DODGE *   CLOUDY    64  59  82 NE6       30.12R
MASON CITY     CLOUDY    63  61  93 E5        30.14R
FOREST CITY *    N/A    N/A N/A N/A MISG        N/A
WEBSTER CITY * CLOUDY    63  59  88 E9        30.09S
IOWA FALLS *   CLOUDY    62  58  86 NE5       30.13R
$$

IAZ007>011-017>019-026>030-037>042-050>054-066-270300-
   NORTHEAST IOWA

CITY           SKY/WX    TMP DP  RH WIND       PRES   REMARKS
CEDAR RAPIDS   CLOUDY    68  64  87 NE10      30.09S
CHARLES CITY * CLOUDY    64  64 100 SE5       30.15R
CLINTON *      CLOUDY    69  66  90 E7        30.12R
DECORAH *      CLOUDY    63  63 100 E3        30.14R
DUBUQUE        MOCLDY    66  61  84 NE9       30.14R
MONTICELLO *   MOCLDY    66  61  82 NE5       30.12R
OELWEIN *      CLOUDY    63  61  94 E7        30.14R
WATERLOO       LGT RAIN  61  58  90 NE7       30.11S
$$

IAZ064-065-067-068-078-270300-
   EAST CENTRAL IOWA

CITY           SKY/WX    TMP DP  RH WIND       PRES   REMARKS
DAVENPORT      MOCLDY    70  65  84 E8        30.10S
IOWA CITY      CLOUDY    72  63  73 NE8       30.10S
MT. PLEASANT * CLOUDY    74  70  86 CALM      30.08S
MUSCATINE *    MOCLDY    73  64  73 NE6       30.08S
QUAD CITIES    CLOUDY    74  63  68 E8        30.09R
$$

IAZ062-063-075>077-085>089-095>099-270300-
   SOUTHEAST IOWA

CITY           SKY/WX    TMP DP  RH WIND       PRES   REMARKS
BURLINGTON     CLOUDY    75  70  84 NE5       30.07S
FAIRFIELD *    CLOUDY    72  64  78 E6        30.08R
FORT MADISON * CLOUDY    73  70  88 CALM      30.08S
KEOKUK *       CLOUDY    75  72  88 E6        30.06S
OSKALOOSA *    MOCLDY    68  65  90 NE6       30.09R
CENTERVILLE *  CLOUDY    72  68  88 E9        30.07S
OTTUMWA        CLOUDY    71  66  84 E6        30.08R
WASHINGTON *   CLOUDY    70  66  88 E5        30.09S
$$

ABBREVIATIONS USED IN REMARKS
   TC - TEMPERATURES IN CELSIUS
  WCI - WIND CHILL INDEX
   HX - HEAT INDEX
  VSB - VISIBILITY
$$





USA.gov is the U.S. government's official web portal to all federal, state and local government web resources and services.